Location: Newark
(21.1700°N, 79.6500°E)
Time: 11:12:07
(UTC+00:00)

N. Korean satellite - Pass Details

Date: 11 December 2019
Orbit: 454 x 507 km, 97.2° (Epoch: 20 January)

Event Time Altitude Azimuth Distance (km) Brightness Sun altitude
Rises 23:33:18 0° 36° (NE) 2,491 10.4 -21.6°
Reaches altitude 10° 23:36:05 10° 61° (ENE) 1,604 9.8 -21.0°
Maximum altitude 23:38:04 15° 97° (E) 1,338 9.8 -20.6°
Drops below altitude 10° 23:40:02 10° 132° (SE) 1,590 10.1 -20.1°
Sets 23:42:46 0° 157° (SSE) 2,455 10.7 -19.5°
